Hayward, WI

5:24 AM CDT on April 27, 2017 (GMT -0500)
Sawyer County

Weather History for KHYR - July, 2014

Change the Weather History Date:

Tuesday, July 29, 2014

  Actual Average Record
Temperature  
Mean Temperature 62 °F -  
Max Temperature 78 °F 80 °F 91 °F (1999)
Min Temperature 50 °F 49 °F 41 °F (2013)
Degree Days  
Heating Degree Days 2    
Growing Degree Days 12 (Base 50)    
Moisture  
Dew Point 55 °F    
Average Humidity 86    
Maximum Humidity 100    
Minimum Humidity 45    
Precipitation  
Precipitation 0.50 in - - ()
Sea Level Pressure  
Sea Level Pressure 30.07 in    
Wind  
Wind Speed 4 mph (NE)    
Max Wind Speed 21 mph    
Max Gust Speed 29 mph    
Visibility 7 miles    
Events Rain , Thunderstorm    
Averages and records for this station are not official NWS values.
T = Trace of Precipitation, MM = Missing Value Source: NWS Daily Summary

Daily Weather History Graph

Daily Weather History Graph

Search for Another Location

Airport or City:

Trip Planner

Search our weather history database for the weather conditions in past years. The results will help you decide how hot, cold, wet, or windy it might be!

Date:

Astronomy

Jul. 29, 2014 Rise Set
Actual Time 5:44 AM CDT 8:39 PM CDT
Civil Twilight 5:09 AM CDT 9:13 PM CDT
Nautical Twilight 4:24 AM CDT 9:58 PM CDT
Astronomical Twilight 3:31 AM CDT 10:51 PM CDT
Moon 8:32 AM CDT (7/29) 9:38 PM CDT (7/29)
Length of Visible Light 16h 04m
Length of Day
14h 54m
Waxing Crescent, 7% of the Moon is Illuminated
Jul 29
Waxing Crescent
Aug 3
First Quarter
Aug 10
Full
Aug 17
Last Quarter
Aug 25
New

Hourly Weather History & Observations

Time (CDT) Temp. Dew Point Humidity Pressure Visibility Wind Dir Wind Speed Gust Speed Precip Events Conditions
12:53 AM 57.0 °F 53.1 °F 87% 30.11 in 10.0 mi NNE 3.5 mph - N/A   Scattered Clouds
1:53 AM 53.1 °F 52.0 °F 96% 30.10 in 10.0 mi South 3.5 mph - N/A   Clear
2:53 AM 53.1 °F 51.1 °F 93% 30.09 in 10.0 mi Calm Calm - N/A   Clear
3:53 AM 50.0 °F 50.0 °F 100% 30.09 in 2.5 mi South 3.5 mph - N/A   Clear
4:07 AM 52.0 °F 50.0 °F 93% 30.09 in 10.0 mi Calm Calm - N/A   Mostly Cloudy
4:53 AM 51.1 °F 48.9 °F 92% 30.09 in 10.0 mi Calm Calm - N/A   Partly Cloudy
4:56 AM 50.0 °F 48.9 °F 96% 30.09 in 1.5 mi Calm Calm - N/A   Partly Cloudy
5:05 AM 50.0 °F 48.9 °F 96% 30.10 in 1.2 mi Calm Calm - N/A   Partly Cloudy
5:08 AM 50.0 °F 48.9 °F 96% 30.10 in 4.0 mi Calm Calm - N/A   Partly Cloudy
5:53 AM 50.0 °F 48.9 °F 96% 30.09 in 10.0 mi SSW 4.6 mph - N/A   Overcast
6:53 AM 54.0 °F 52.0 °F 93% 30.10 in 10.0 mi Calm Calm - N/A   Overcast
7:53 AM 55.9 °F 54.0 °F 93% 30.10 in 10.0 mi Calm Calm - N/A   Scattered Clouds
9:53 AM 66.9 °F 54.0 °F 63% 30.09 in 10.0 mi West 5.8 mph - N/A   Scattered Clouds
10:53 AM 70.0 °F 55.0 °F 59% 30.08 in 10.0 mi Variable 3.5 mph - N/A   Mostly Cloudy
11:53 AM 71.1 °F 57.0 °F 61% 30.07 in 10.0 mi Variable 4.6 mph - N/A   Mostly Cloudy
12:53 PM 75.0 °F 57.9 °F 55% 30.06 in 10.0 mi Variable 6.9 mph - N/A   Scattered Clouds
1:53 PM 70.0 °F 59.0 °F 68% 30.06 in 8.0 mi Calm Calm - 0.02 in Rain Light Rain
2:53 PM 72.0 °F 55.9 °F 57% 30.04 in 10.0 mi Variable 5.8 mph - 0.00 in   Overcast
3:53 PM 75.9 °F 53.1 °F 45% 30.03 in 10.0 mi Variable 4.6 mph 16.1 mph N/A   Clear
5:25 PM 66.9 °F 54.0 °F 63% 30.05 in 10.0 mi NE 15.0 mph 26.5 mph N/A Thunderstorm Mostly Cloudy
5:27 PM 66.0 °F 54.0 °F 65% 30.05 in 7.0 mi NE 13.8 mph 26.5 mph N/A Thunderstorm Thunderstorm
5:35 PM 62.1 °F 57.9 °F 86% 30.05 in 1.5 mi NE 17.3 mph 24.2 mph 0.12 in Rain , Thunderstorm Heavy Thunderstorms and Rain
5:40 PM 60.1 °F 57.9 °F 93% 30.04 in 0.8 mi NNE 20.7 mph 28.8 mph 0.20 in Rain , Thunderstorm Heavy Thunderstorms and Rain
5:47 PM 60.8 °F 57.2 °F 88% 30.06 in 1.2 mi NNE 13.8 mph 28.8 mph 0.27 in Rain , Thunderstorm Heavy Thunderstorms and Rain
5:53 PM 61.0 °F 57.9 °F 90% 30.08 in 2.0 mi NNE 12.7 mph - 0.32 in Rain , Thunderstorm Heavy Thunderstorms and Rain
6:21 PM 60.1 °F 57.9 °F 93% 30.06 in 2.0 mi NNE 11.5 mph - 0.07 in Rain Rain
6:30 PM 61.0 °F 59.0 °F 93% 30.06 in 5.0 mi North 9.2 mph - 0.08 in Rain Rain
6:53 PM 60.1 °F 57.9 °F 93% 30.06 in 7.0 mi Calm Calm - 0.10 in Rain Light Rain
7:53 PM 61.0 °F 60.1 °F 97% 30.04 in 10.0 mi SSW 5.8 mph - 0.01 in   Partly Cloudy
8:53 PM 59.0 °F 59.0 °F 100% 30.06 in 6.0 mi NNE 9.2 mph - N/A   Scattered Clouds
9:53 PM 59.0 °F 57.9 °F 96% 30.04 in 9.0 mi East 3.5 mph - 0.05 in Rain Light Rain
10:53 PM 59.0 °F 57.9 °F 96% 30.05 in 7.0 mi Calm Calm - 0.00 in   Partly Cloudy
11:11 PM 57.0 °F 55.9 °F 96% 30.05 in 1.8 mi Calm Calm - N/A   Clear
11:22 PM 55.9 °F 55.9 °F 100% 30.04 in 1.0 mi Calm Calm - N/A   Scattered Clouds
11:28 PM 55.9 °F 55.9 °F 100% 30.05 in 2.0 mi Calm Calm - N/A   Mostly Cloudy
11:36 PM 57.9 °F 57.0 °F 97% 30.05 in 6.0 mi Calm Calm - N/A   Scattered Clouds
11:53 PM 57.9 °F 57.0 °F 97% 30.05 in 8.0 mi Calm Calm - N/A   Partly Cloudy